Weather in Yaypan

Uzbekistan     40˚22′37″N   70˚48′49″E
temp.,
°C
wind,
m/s
gust,
m/s
humid.,
%
clouds,
%
prec.,
mm/h
press.,
hPa
HPBL,
m
1 december, tue
tue123:00+3˚ene1250100 0.0 102824
02:00+2˚ene2350100 0.0 102644
05:00+2˚ene2348100 0.0 102757
08:00+3˚ene344798 0.0 1026149
11:00+6˚e343799 0.0 1026373
14:00+8˚ene333093 0.0 1025459
17:00+7˚ene354197 0.0 1027285
20:00+5˚ene3560100 0.2 1029328
2 december, wed
wed223:00+5˚ene3562100 0.2 1029135
02:00+3˚ene2270100 0.0 102829
05:00+3˚ene2270100 0.0 102923
08:00+3˚ene2275100 0.0 102927
11:00+9˚ene3349100 0.0 1027371
14:00+11˚ne3331100 0.0 1025549
17:00+8˚ne2235100 0.0 102523
20:00+7˚e2239100 0.0 102623
3 december, thu
thu323:00+7˚ne2248100 0.2 102655
02:00+7˚ne355498 0.0 1026185
05:00+7˚ne245899 0.1 1026191
08:00+7˚ene2364100 0.1 1027177
11:00+8˚e2366100 0.1 1026301
14:00+10˚e2358100 0.0 1025587
17:00+8˚ne2368100 0.0 102458
20:00+8˚se1281100 0.6 102590
4 december, fri
fri423:00+7˚s1188100 1.3 102472
02:00+7˚wsw3492100 2.8 1023227
05:00+8˚sw41083100 3.3 1022616
08:00+7˚wsw101578100 0.1 1023628
11:00+8˚wsw111770100 0.1 1024600
14:00+8˚wsw111765100 0.0 1024625
17:00+6˚wsw111758100 0.0 1027643
20:00+6˚wsw101559100 0.0 1029578
5 december, sat
sat523:00+6˚wsw8135799 0.0 1030541
02:00+5˚w51059100 0.0 1030347
05:00+3˚w366498 0.0 1030158
08:00+3˚w127075 0.0 103049
11:00+7˚n115559 0.0 1028615
14:00+8˚nne1149100 0.0 1026974
17:00+6˚nne1157100 0.0 102629
20:00+5˚n116590 0.0 102823